20170 USSS-USSG

Flight info

Callsign 20170
Flight time N/A
Altitude 1500
Route DCT 5651N06048E/UGBER 5702N06034E/BALTYM 5718N06017E/KRASILOVO 5729N06012E/NEVYANSK DCT
Aircraft MI2/L-V/N

Departure

Time 2026-05-06 06:27
Airport Koltsovo Airport (USSS)

Arrival

Time N/A
Airport USSG
Time Latitude Longitude Altitude Speed Heading
2026-05-06 06:09 56.74783 60.81740 770 ft 0 kts 180°
2026-05-06 06:20 56.74782 60.81740 770 ft 1 kts 181°
2026-05-06 06:20 56.74771 60.81740 771 ft 3 kts 179°
2026-05-06 06:21 56.74749 60.81742 771 ft 3 kts 168°
2026-05-06 06:21 56.74735 60.81790 771 ft 6 kts 91°
2026-05-06 06:21 56.74746 60.81863 771 ft 7 kts 53°
2026-05-06 06:21 56.74775 60.81934 771 ft 7 kts 53°
2026-05-06 06:22 56.74806 60.82001 771 ft 7 kts 62°
2026-05-06 06:22 56.74796 60.82085 771 ft 8 kts 118°
2026-05-06 06:22 56.74770 60.82166 771 ft 8 kts 126°
2026-05-06 06:22 56.74729 60.82201 771 ft 6 kts 178°
2026-05-06 06:23 56.74688 60.82201 771 ft 6 kts 186°
2026-05-06 06:23 56.74660 60.82149 771 ft 6 kts 268°
2026-05-06 06:23 56.74659 60.82064 771 ft 7 kts 270°
2026-05-06 06:23 56.74659 60.82027 771 ft 0 kts 272°
2026-05-06 06:24 56.74659 60.82026 771 ft 0 kts 271°
2026-05-06 06:25 56.74659 60.82025 778 ft 2 kts 267°
2026-05-06 06:25 56.74657 60.81961 801 ft 18 kts 269°
2026-05-06 06:25 56.74657 60.80899 920 ft 55 kts 269°
2026-05-06 06:26 56.74650 60.80157 996 ft 61 kts 267°
2026-05-06 06:26 56.74648 60.79354 1074 ft 66 kts 268°
2026-05-06 06:26 56.74651 60.78465 1147 ft 75 kts 268°
2026-05-06 06:26 56.74651 60.77547 1232 ft 68 kts 267°
2026-05-06 06:27 56.74680 60.76701 1362 ft 66 kts 283°
2026-05-06 06:27 56.74958 60.76045 1495 ft 71 kts 329°
2026-05-06 06:27 56.75478 60.75986 1577 ft 81 kts
2026-05-06 06:27 56.76056 60.76176 1562 ft 88 kts
2026-05-06 06:28 56.76655 60.76385 1572 ft 88 kts 10°
2026-05-06 06:28 56.77244 60.76652 1601 ft 86 kts 11°
2026-05-06 06:28 56.77818 60.76870 1617 ft 83 kts
2026-05-06 06:28 56.78380 60.77103 1675 ft 85 kts
2026-05-06 06:29 56.78984 60.77344 1644 ft 91 kts 11°
2026-05-06 06:29 56.79612 60.77643 1657 ft 95 kts 13°
2026-05-06 06:29 56.80250 60.77968 1690 ft 97 kts 15°
2026-05-06 06:29 56.80889 60.78345 1655 ft 95 kts 17°
2026-05-06 06:30 56.81484 60.78738 1638 ft 85 kts 17°
2026-05-06 06:30 56.82014 60.79073 1636 ft 79 kts 13°
2026-05-06 06:30 56.82532 60.79352 1665 ft 76 kts
2026-05-06 06:30 56.83050 60.79554 1694 ft 75 kts
2026-05-06 06:31 56.83569 60.79635 1734 ft 76 kts 355°
2026-05-06 06:31 56.84080 60.79555 1753 ft 73 kts 342°
2026-05-06 06:31 56.84412 60.79420 1741 ft 74 kts 339°
2026-05-06 06:31 56.84908 60.79155 1731 ft 75 kts 338°
2026-05-06 06:32 56.85424 60.78873 1701 ft 79 kts 339°
2026-05-06 06:32 56.85950 60.78641 1712 ft 77 kts 341°
2026-05-06 06:32 56.86455 60.78382 1724 ft 74 kts 336°
2026-05-06 06:32 56.86931 60.78026 1735 ft 73 kts 327°
2026-05-06 06:33 56.87389 60.77581 1783 ft 77 kts 324°
2026-05-06 06:33 56.87869 60.77081 1809 ft 81 kts 322°
2026-05-06 06:33 56.88355 60.76466 1768 ft 88 kts 320°
2026-05-06 06:33 56.88856 60.75803 1720 ft 88 kts 318°
2026-05-06 06:34 56.89342 60.75181 1734 ft 84 kts 319°
2026-05-06 06:34 56.89824 60.74591 1745 ft 83 kts 320°
2026-05-06 06:34 56.90341 60.74018 1802 ft 90 kts 324°
2026-05-06 06:34 56.90875 60.73390 1775 ft 91 kts 324°
2026-05-06 06:35 56.91368 60.72771 1748 ft 81 kts 320°
2026-05-06 06:35 56.91800 60.72202 1741 ft 72 kts 318°
2026-05-06 06:35 56.92125 60.71610 1854 ft 63 kts 302°
2026-05-06 06:35 56.92455 60.70977 1887 ft 74 kts 314°
2026-05-06 06:36 56.92859 60.70350 1856 ft 77 kts 316°
2026-05-06 06:36 56.93291 60.69773 1909 ft 79 kts 321°
2026-05-06 06:36 56.93755 60.69165 1831 ft 83 kts 317°
2026-05-06 06:36 56.94207 60.68553 1819 ft 79 kts 315°
2026-05-06 06:37 56.94640 60.68002 1823 ft 75 kts 316°
2026-05-06 06:37 56.95068 60.67455 1877 ft 77 kts 317°
2026-05-06 06:37 56.95543 60.66868 1884 ft 88 kts 319°
2026-05-06 06:37 56.96069 60.66211 1815 ft 93 kts 320°
2026-05-06 06:38 56.96595 60.65546 1748 ft 88 kts 319°
2026-05-06 06:38 56.97046 60.64910 1769 ft 75 kts 316°
2026-05-06 06:38 56.97442 60.64295 1781 ft 76 kts 312°
2026-05-06 06:38 56.97656 60.63911 1749 ft 76 kts 311°